OIAG

Details ICAO OIAG
Name AGHAJARI
Region Iran
Timezone Asia/Tehran (UTC+4.5)
Plans Departing 0
Arriving 0
Stats Elevation 88 ft / 27 m (AMSL)
Location 30.745446° 49.676088°
Runways 1
Magnetic Variation 3.719° E
Sunrise 2018-05-27 01:42:04 UTC / 2018-05-27 06:12:04 Local
Sunset 2018-05-27 15:37:41 UTC / 2018-05-27 20:07:41 Local
Advertisement - Login to hide

Runways

ID Width Length Bearing (true) Bearing (mag) Surface Threshold Offset Overrun Length
13 148 ft / 45 m 6,939 ft / 2,115 m 136.65° 132.93° Asphalt 0 ft / 0 m 0 ft / 0 m
31 148 ft / 45 m 6,939 ft / 2,115 m 316.66° 312.94° Asphalt 0 ft / 0 m 0 ft / 0 m

Map

Weather


0- 5 10 15 20 25 30 35+ Temperature / ° C

Clouds and Precipitation
Forecast for 2018-05-27 18:00 UTC. Updated an hour ago

Ground ~20,000 ft ~40,000 ft Winds

METAR

OIAG 271700Z 35008KT CAVOK 36/04 Q1004

TAF

Not found

Frequencies

Tower 123.50 MHz INFO
Tower 122.10 MHz INFO
Warning: Do not use this data for real-world aviation or navigation. No guarantee of current accuracy is given.